Regional Weather Roundup
Issued by NWS

Home | Current Version | Previous Version | Graphics & Text | Print | Product List | Glossary On
Versions: 1 2 3 4 5 6 7 8 9 10 11 12 13 14 15 16 17 18 19 20 21 22 23 24 25 26 27 28 29 30 31 32 33 34 35 36 37 38 39 40 41 42 43 44 45 46 47 48 49 50
000
ASUS43 KLSX 250107
RWRMO

WEATHER SUMMARY FOR MISSOURI
NATIONAL WEATHER SERVICE SPRINGFIELD MO
800 PM CDT THU APR 24 2014

NOTE: "FAIR" INDICATES FEW OR NO CLOUDS BELOW 12,000 FEET WITH NO
       SIGNIFICANT WEATHER AND/OR OBSTRUCTIONS TO VISIBILITY.
       CURRENT SKY AND/OR WEATHER CONDITIONS ARE NOT AVAILABLE FOR
       CHILLICOTHE AND FARMINGTON.

MOZ001>031-035>038-043-044-053-054-250200-
...NORTHERN AND WESTERN MISSOURI...

CITY           SKY/WX    TMP DP  RH WIND       PRES   REMARKS
KANSAS CTY INT CLOUDY    57  48  72 NW7       29.80R
KANSAS C DTWN  CLOUDY    58  48  69 NW5       29.79R
LEE`S SUMMIT   MOCLDY    57  46  66 NW14      29.79R
ST JOSEPH      CLOUDY    55  47  74 NW5       29.81R
CHILLICOTHE      N/A     54  47  77 NW9G18    29.76R
KIRKSVILLE     CLOUDY    53  51  93 NW16G26   29.69R

$$
MOZ066>068-077>081-088>096-101>105-250200-
...SOUTHWEST MISSOURI...

CITY           SKY/WX    TMP DP  RH WIND       PRES   REMARKS
SPRINGFIELD    CLOUDY    57  53  86 NW17G30   29.73R
JOPLIN         CLOUDY    58  49  72 NW10      29.81R

$$
MOZ032>034-039>042-045>050-055>058-069>072-250200-
...CENTRAL MISSOURI...

CITY           SKY/WX    TMP DP  RH WIND       PRES   REMARKS
COLUMBIA       CLOUDY    58  57  97 W12       29.66S
JEFFERSON CITY CLOUDY    59  57  93 NW3       29.66S
ROLLA          CLOUDY    56  54  93 CALM      29.63F
SEDALIA        CLOUDY    56  51  84 NW15G25   29.73R
WHITEMAN AFB   CLOUDY    56  47  71 NW14G21   29.73R
OSAGE BEACH    CLOUDY    57  55  94 W7        29.69R

$$
MOZ051-052-059>065-250200-
...EAST CENTRAL MISSOURI...

CITY           SKY/WX    TMP DP  RH WIND       PRES   REMARKS
ST LOUIS INTL  RAIN      59  55  87 NW5       29.66S FOG
SPIRIT OF STL  LGT RAIN N/A N/A N/A CALM      29.63F
ST CHARLES     RAIN      58  56  93 N3        29.64F FOG

$$
MOZ072>076-082>087-097>100-106>115-250200-
...SOUTH CENTRAL AND SOUTHEAST MISSOURI...

CITY           SKY/WX    TMP DP  RH WIND       PRES   REMARKS
CAPE GIRARDEAU LGT RAIN  68  58  70 SW10      29.67R
FARMINGTON     CLOUDY    57  55  94 NW9       29.71R
POPLAR BLUFF   LGT RAIN  65  60  84 SE5       29.65F
WEST PLAINS    CLOUDY    64  57  78 S5        29.67R

$$



USA.gov is the U.S. government's official web portal to all federal, state and local government web resources and services.